• Em Portugal
  • Lista de países
  • Para 7 dias
  • Temperatura da água
  • Mapas de satélite
  • Mapa do tempo
  • Widgets de tempo
  • user-avatar
    Iniciar Sessão

    Previsão horária em Rio Branco

    Hoje, 17 Outubro, Terça-feira

    Tempo Temperatura Precipitação Vento Pressão Humidade
    00:00 +26°C° 0 mm 0 m/s 745 mmHg 64%
    01:00 +25°C° 0 mm 0 m/s 745 mmHg 65%
    02:00 +25°C° 0 mm 0 m/s 745 mmHg 66%
    03:00 +24°C° 0 mm 0 m/s 745 mmHg 68%
    04:00 +26°C° 0 mm 1 m/s 745 mmHg 69%
    05:00 +28°C° 0 mm 1 m/s 746 mmHg 65%
    06:00 +29°C° 0 mm 1 m/s 746 mmHg 61%
    07:00 +31°C° 0 mm 1 m/s 747 mmHg 55%
    08:00 +34°C° 0 mm 1 m/s 747 mmHg 47%
    09:00 +37°C° 0 mm 1 m/s 747 mmHg 39%
    10:00 +41°C° 0 mm 1 m/s 747 mmHg 31%
    11:00 +40°C° 0 mm 1 m/s 746 mmHg 32%
    12:00 +40°C° 0 mm 1 m/s 745 mmHg 34%
    13:00 +39°C° 0 mm 1 m/s 744 mmHg 35%
    14:00 +39°C° 0 mm 1 m/s 744 mmHg 35%
    15:00 +39°C° 0 mm 1 m/s 743 mmHg 36%
    16:00 +37°C° 0 mm 1 m/s 743 mmHg 37%
    17:00 +35°C° 0 mm 1 m/s 743 mmHg 43%
    18:00 +33°C° 0 mm 1 m/s 743 mmHg 48%
    19:00 +31°C° 0 mm 1 m/s 744 mmHg 54%
    20:00 +30°C° 0 mm 1 m/s 744 mmHg 55%
    21:00 +30°C° 0 mm 1 m/s 744 mmHg 57%
    22:00 +29°C° 0 mm 1 m/s 745 mmHg 59%
    23:00 +29°C° 0 mm 1 m/s 745 mmHg 61%

    Amanhã, 18 Outubro, Quarta-feira

    Tempo Temperatura Precipitação Vento Pressão Humidade
    00:00 +28°C° 0 mm 1 m/s 744 mmHg 62%
    01:00 +28°C° 0 mm 1 m/s 744 mmHg 64%
    02:00 +28°C° 0 mm 1 m/s 744 mmHg 66%
    03:00 +27°C° 0 mm 1 m/s 744 mmHg 67%
    04:00 +25°C° 0 mm 0 m/s 744 mmHg 68%
    05:00 +29°C° 0 mm 1 m/s 745 mmHg 64%
    06:00 +30°C° 0 mm 1 m/s 745 mmHg 60%
    07:00 +31°C° 0 mm 1 m/s 746 mmHg 56%
    08:00 +34°C° 0 mm 1 m/s 746 mmHg 48%
    09:00 +37°C° 0 mm 1 m/s 746 mmHg 40%
    10:00 +41°C° 0 mm 1 m/s 746 mmHg 32%
    11:00 +41°C° 0 mm 1 m/s 745 mmHg 34%
    12:00 +40°C° 0 mm 1 m/s 744 mmHg 35%
    13:00 +40°C° 0 mm 1 m/s 744 mmHg 36%
    14:00 +39°C° 0 mm 1 m/s 743 mmHg 37%
    15:00 +39°C° 0 mm 1 m/s 742 mmHg 37%
    16:00 +39°C° 0 mm 1 m/s 742 mmHg 38%
    17:00 +36°C° 0 mm 1 m/s 742 mmHg 43%
    18:00 +34°C° 0 mm 1 m/s 742 mmHg 47%
    19:00 +30°C° 0 mm 0 m/s 743 mmHg 52%
    20:00 +31°C° 0 mm 1 m/s 743 mmHg 54%
    21:00 +31°C° 0 mm 1 m/s 744 mmHg 56%
    22:00 +30°C° 0 mm 1 m/s 744 mmHg 58%
    23:00 +30°C° 0 mm 1 m/s 744 mmHg 60%

    Depois de amanhã, 19 Outubro, Quinta-feira

    Tempo Temperatura Precipitação Vento Pressão Humidade
    00:00 +29°C° 0 mm 1 m/s 743 mmHg 62%
    01:00 +29°C° 0 mm 1 m/s 743 mmHg 63%
    02:00 +29°C° 0 mm 1 m/s 743 mmHg 66%
    03:00 +28°C° 0 mm 1 m/s 743 mmHg 69%
    04:00 +26°C° 0 mm 0 m/s 743 mmHg 72%
    05:00 +29°C° 0 mm 1 m/s 744 mmHg 68%
    06:00 +31°C° 0 mm 1 m/s 744 mmHg 63%
    07:00 +32°C° 0 mm 1 m/s 745 mmHg 59%
    08:00 +35°C° 0 mm 1 m/s 745 mmHg 51%
    09:00 +37°C° 0 mm 1 m/s 745 mmHg 42%
    10:00 +41°C° 0 mm 1 m/s 745 mmHg 34%
    11:00 +40°C° 0 mm 1 m/s 744 mmHg 35%
    12:00 +40°C° 0 mm 1 m/s 743 mmHg 35%
    13:00 +39°C° 0 mm 1 m/s 742 mmHg 36%
    14:00 +39°C° 0 mm 1 m/s 741 mmHg 38%
    15:00 +39°C° 0 mm 1 m/s 741 mmHg 39%
    16:00 +37°C° 0 mm 1 m/s 740 mmHg 41%
    17:00 +36°C° 0 mm 1 m/s 741 mmHg 45%
    18:00 +34°C° 0 mm 1 m/s 741 mmHg 49%
    19:00 +32°C° 0 mm 1 m/s 742 mmHg 53%
    20:00 +32°C° 0 mm 1 m/s 742 mmHg 56%
    21:00 +29°C° 0 mm 0 m/s 743 mmHg 58%
    22:00 +28°C° 0 mm 0 m/s 743 mmHg 60%
    23:00 +28°C° 0,1 mm 0 m/s 743 mmHg 63%

    20 Outubro, Sexta-feira

    Tempo Temperatura Precipitação Vento Pressão Humidade
    00:00 +27°C° 0,1 mm 0 m/s 742 mmHg 65%
    01:00 +27°C° 0,1 mm 0 m/s 742 mmHg 68%
    02:00 +26°C° 0,1 mm 0 m/s 742 mmHg 72%
    03:00 +27°C° 0,1 mm 1 m/s 742 mmHg 75%
    04:00 +27°C° 0,1 mm 1 m/s 742 mmHg 79%
    05:00 +28°C° 0,3 mm 1 m/s 743 mmHg 78%
    06:00 +28°C° 0,3 mm 1 m/s 744 mmHg 78%
    07:00 +29°C° 0,3 mm 1 m/s 745 mmHg 78%
    08:00 +31°C° 0,7 mm 1 m/s 745 mmHg 68%
    09:00 +34°C° 0,7 mm 1 m/s 745 mmHg 59%
    10:00 +37°C° 0,7 mm 2 m/s 745 mmHg 49%
    11:00 +38°C° 0 mm 2 m/s 744 mmHg 46%
    12:00 +37°C° 0 mm 1 m/s 743 mmHg 43%
    13:00 +39°C° 0 mm 1 m/s 743 mmHg 41%
    14:00 +37°C° 0,1 mm 1 m/s 742 mmHg 45%
    15:00 +36°C° 0,1 mm 1 m/s 741 mmHg 50%
    16:00 +34°C° 0,1 mm 1 m/s 740 mmHg 55%
    17:00 +33°C° 1,6 mm 1 m/s 741 mmHg 62%
    18:00 +31°C° 1,6 mm 1 m/s 741 mmHg 69%
    19:00 +29°C° 1,6 mm 2 m/s 742 mmHg 76%
    20:00 +29°C° 1 mm 1 m/s 742 mmHg 79%
    21:00 +28°C° 1 mm 1 m/s 743 mmHg 83%
    22:00 +28°C° 1 mm 1 m/s 743 mmHg 86%
    23:00 +28°C° 0,4 mm 1 m/s 743 mmHg 86%

    21 Outubro, Sábado

    Tempo Temperatura Precipitação Vento Pressão Humidade
    00:00 +27°C° 0,4 mm 1 m/s 743 mmHg 86%
    01:00 +25°C° 0,4 mm 0 m/s 743 mmHg 87%
    02:00 +25°C° 0 mm 0 m/s 743 mmHg 87%
    03:00 +27°C° 0 mm 1 m/s 743 mmHg 88%
    04:00 +27°C° 0 mm 1 m/s 743 mmHg 89%
    05:00 +27°C° 0 mm 1 m/s 744 mmHg 87%
    06:00 +28°C° 0 mm 1 m/s 744 mmHg 84%
    07:00 +29°C° 0 mm 1 m/s 745 mmHg 82%
    08:00 +31°C° 0 mm 2 m/s 745 mmHg 70%
    09:00 +35°C° 0 mm 2 m/s 745 mmHg 59%
    10:00 +37°C° 0 mm 2 m/s 745 mmHg 47%
    11:00 +38°C° 0 mm 2 m/s 744 mmHg 45%
    12:00 +37°C° 0 mm 1 m/s 744 mmHg 43%
    13:00 +39°C° 0 mm 1 m/s 743 mmHg 41%
    14:00 +36°C° 0 mm 1 m/s 742 mmHg 46%
    15:00 +35°C° 0 mm 1 m/s 742 mmHg 52%
    16:00 +34°C° 0 mm 1 m/s 742 mmHg 57%
    17:00 +33°C° 0 mm 1 m/s 742 mmHg 62%
    18:00 +31°C° 0 mm 1 m/s 743 mmHg 68%
    19:00 +28°C° 0 mm 0 m/s 743 mmHg 73%
    20:00 +27°C° 0,3 mm 0 m/s 743 mmHg 77%
    21:00 +26°C° 0,3 mm 0 m/s 743 mmHg 81%
    22:00 +26°C° 0,3 mm 0 m/s 744 mmHg 85%
    23:00 +25°C° 2,1 mm 0 m/s 744 mmHg 89%

    22 Outubro, Domingo

    Tempo Temperatura Precipitação Vento Pressão Humidade
    00:00 +25°C° 2,1 mm 0 m/s 743 mmHg 93%
    01:00 +24°C° 2,1 mm 0 m/s 743 mmHg 97%
    02:00 +24°C° 0,4 mm 0 m/s 743 mmHg 97%
    03:00 +24°C° 0,4 mm 0 m/s 744 mmHg 97%
    04:00 +24°C° 0,4 mm 0 m/s 744 mmHg 97%
    05:00 +24°C° 0 mm 0 m/s 745 mmHg 96%
    06:00 +25°C° 0 mm 0 m/s 745 mmHg 94%
    07:00 +25°C° 0 mm 0 m/s 746 mmHg 93%
    08:00 +27°C° 0,1 mm 0 m/s 746 mmHg 84%
    09:00 +29°C° 0,1 mm 0 m/s 746 mmHg 75%
    10:00 +33°C° 0,1 mm 1 m/s 746 mmHg 65%
    11:00 +33°C° 0,1 mm 1 m/s 745 mmHg 64%
    12:00 +33°C° 0,1 mm 1 m/s 744 mmHg 64%
    13:00 +34°C° 0,1 mm 2 m/s 744 mmHg 63%
    14:00 +32°C° 0,2 mm 2 m/s 743 mmHg 64%
    15:00 +32°C° 0,2 mm 1 m/s 743 mmHg 66%
    16:00 +31°C° 0,2 mm 1 m/s 742 mmHg 68%
    17:00 +30°C° 0,1 mm 1 m/s 743 mmHg 73%
    18:00 +29°C° 0,1 mm 1 m/s 743 mmHg 78%
    19:00 +27°C° 0,1 mm 1 m/s 743 mmHg 83%
    20:00 +27°C° 0,2 mm 1 m/s 744 mmHg 85%
    21:00 +26°C° 0,2 mm 1 m/s 744 mmHg 87%
    22:00 +24°C° 0,2 mm 0 m/s 745 mmHg 90%
    23:00 +24°C° 1,2 mm 0 m/s 745 mmHg 92%
    Mostrar mais